User: anonymous   Login
Location: New Plymouth
(39.0670°S, 174.0830°E)
Time: 21:37:49
(UTC+12:00)
Language:

BEESAT - Orbit

View from above orbital plane
View from above orbital plane
View from above satellite
View from above satellite

Ground track
Ground track

The orbit data is extracted from the following two-line orbital elements,

1 35933U 09051C   19258.15852323  .00000072  00000-0  27321-4 0  9990
2 35933  98.5987  68.5624 0004659 267.0702  92.9961 14.56394563529761
Epoch (UTC): 15 September 2019 03:48:16
Eccentricity: 0.0004659
inclination: 98.5987°
perigee height: 701 km
apogee height: 708 km
right ascension of ascending node: 68.5624°
argument of perigee: 267.0702°
revolutions per day: 14.56394563
mean anomaly at epoch: 92.9961°
orbit number at epoch: 52976

The dashed part of the orbit path shows where the satellite is in the earth's shadow,  

DLR